User: anonymous   Login
Location: Unspecified
(0.0000°N, 0.0000°E)
Time: 16:31:53
(UTC+00:00)
Language:

COSMOS 2508 - Orbit

View from above orbital plane
View from above orbital plane
View from above satellite
View from above satellite

Ground track
Ground track

The orbit data is extracted from the following two-line orbital elements,

1 40921U 15050B   21333.85887665  .00000031  00000-0  15237-3 0  9997
2 40921  82.4918  32.4307 0014617  48.2847 311.9478 12.42885810280610
Epoch (UTC): 29 November 2021 20:36:46
Eccentricity: 0.0014617
inclination: 82.4918°
perigee height: 1483 km
apogee height: 1506 km
right ascension of ascending node: 32.4307°
argument of perigee: 48.2847°
revolutions per day: 12.42885810
mean anomaly at epoch: 311.9478°
orbit number at epoch: 28061

The dashed part of the orbit path shows where the satellite is in the earth's shadow,  

DLR